Temp
69 71 71 71 72 73 72 72 72 73 72 70 69 68 67 67 67 65 64 63 62 61 61 59 59 60 59 59 58 58 56 55 52 49 41 39 37 38 39 40 40 41 43
67 68 69 70 71 70 70 71 71 70 71 69 66 65 65 65 66 64 62 61 60 59 59 58 57 58 57 58 57 56 55 56 53 51 36 35 36 38 38 37 38 40 40
64 65 66 67 68 68 69 69 67 66 66 64 64 63 63 64 65 64 63 61 60 59 59 58 58 57 55 56 56 55 54 52 50 46 39 36 35 36 35 36 35 36 38
61 62 63 64 66 67 67 67 65 64 63 62 62 62 62 62 63 63 62 60 59 59 59 58 57 56 55 54 53 52 47 45 43 40 35 34 34 33 34 33 31 33 33
60 60 60 59 60 61 61 60 58 57 58 59 59 59 59 58 58 59 59 58 57 57 53 51 50 46 43 48 48 46 44 40 36 36 35 34 33 32 31 32 32 32 32
59 58 59 55 53 53 54 50 48 48 48 47 47 48 51 48 42 43 48 51 49 48 47 44 43 38 42 42 42 43 44 41 35 35 34 34 33 33 33 32 32 30 29
55 53 48 47 47 47 45 43 42 44 43 42 42 43 42 42 42 42 41 46 45 45 42 40 38 37 38 40 41 41 39 41 41 38 34 34 33 34 33 32 32 32 32
52 49 41 41 41 41 42 41 40 40 40 40 40 40 39 39 41 41 40 42 40 39 39 38 38 37 37 37 37 35 35 35 36 36 35 34 34 34 34 34 33 32 32
47 45 40 40 39 40 39 41 41 39 37 37 36 36 36 37 40 40 39 37 35 35 36 37 37 37 38 39 35 34 33 33 37 40 40 40 40 39 37 34 32 32 31
44 41 39 39 37 39 39 37 36 35 34 34 33 34 33 35 39 39 39 35 34 34 34 34 35 36 38 38 34 33 33 32 33 33 33 34 35 37 37 34 34 32 32
37 37 35 36 35 38 36 35 34 34 33 33 33 33 34 34 37 39 39 35 35 34 34 34 34 38 38 38 37 34 34 34 34 33 33 33 33 33 33 33 33 33 32
34 34 34 34 34 34 34 33 33 33 33 33 33 33 33 34 36 38 38 38 37 34 33 34 35 38 38 38 36 38 36 34 33 33 33 32 32 32 32 32 32 32 32
33 33 33 33 33 33 33 33 33 33 34 33 33 33 32 33 34 37 37 37 36 34 34 36 38 38 38 37 36 35 33 33 33 32 31 30 30 30 31 31 31 31 31
32 33 32 32 33 33 33 33 34 34 34 33 33 32 32 32 33 34 33 33 33 34 34 34 35 35 35 33 32 33 33 33 32 31 29 29 30 31 30 31 30 30 29
31 30 31 31 32 31 31 32 31 32 34 33 33 33 32 31 32 34 33 32 32 33 33 33 32 32 31 31 31 32 32 31 31 31 31 30 29 29 30 30 30 29 28
28 28 28 29 29 30 30 30 35 34 35 35 35 34 33 35 36 35 35 35 34 34 31 30 29 30 29 29 29 29 30 30 30 30 30 30 29 29 28 29 28 24 25
27 26 26 27 28 29 29 28 25 29 33 34 34 35 35 36 36 35 35 35 34 34 30 29 28 28 27 27 27 28 28 28 27 28 29 29 29 28 27 27 28 27 26
23 24 24 25 26 27 27 26 27 27 25 24 29 29 32 32 33 35 36 34 31 32 30 29 28 28 28 27 27 27 27 27 27 27 27 27 26 26 25 25 25 24 24
18 19 22 22 23 24 25 25 25 24 23 22 23 25 23 29 29 29 29 27 28 27 26 26 25 25 25 25 25 25 25 24 23 23 24 24 24 23 23 23 23 22 18
16 17 17 17 18 18 19 20 20 19 18 17 16 18 18 22 19 19 19 19 19 19 19 19 19 20 20 20 20 21 21 22 22 22 21 21 21 21 20 20 20 19 19
14 14 15 14 14 14 14 14 15 15 15 14 13 17 21 15 15 15 15 14 13 13 14 14 15 16 17 17 17 17 17 17 17 15 14 16 16 14 16 18 17 17 15
13 12 12 12 12 12 12 12 12 12 12 11 11 13 17 13 12 12 13 12 12 12 12 11 11 13 13 12 12 12 13 12 12 12 12 10 8 10 11 12 12 12 12
11 11 10 10 11 11 11 11 10 10 10 11 11 11 11 10 10 10 10 10 10 10 10 9 9 9 10 11 11 10 9 9 9 8 6 6 7 8 9 11 9 7 6
9 9 9 9 9 9 9 9 9 9 8 8 8 8 8 8 8 8 9 9 9 8 9 8 7 6 6 6 7 8 7 4 4 4 2 2 4 5 4 4 6 4 4
7 7 7 6 6 6 6 7 7 7 7 7 7 7 7 7 7 7 7 7 6 5 5 5 5 4 5 4 3 2 2 4 -0 2 0 1 1 0 4 3 2 3 4
5 5 5 5 5 5 5 4 4 5 5 5 5 5 5 5 5 5 5 4 4 3 3 3 3 3 2 2 2 4 4 5 2 1 -1 2 3 3 3 3 0 3 2
MSLP
1007.90 1007.64 1007.52 1007.65 1007.80 1008.03 1008.21 1008.30 1008.42 1008.51 1008.77 1009.14 1009.55 1009.98 1010.33 1010.69 1011.13 1011.33 1011.57 1011.93 1012.27 1012.58 1012.93 1013.23 1013.43 1013.76 1014.09 1014.31 1014.52 1014.64 1014.80 1015.09 1015.04 1015.57 1016.41 1017.04 1017.53 1017.86 1018.21 1018.56 1018.66 1018.92 1019.06
1007.93 1007.60 1007.22 1007.12 1007.23 1007.45 1007.52 1007.68 1007.93 1008.13 1008.33 1008.64 1008.98 1009.28 1009.63 1009.91 1010.05 1010.23 1010.48 1010.76 1011.12 1011.46 1011.78 1012.34 1012.67 1013.00 1013.14 1013.36 1013.52 1013.60 1013.80 1013.98 1014.49 1015.03 1016.08 1016.86 1017.42 1017.70 1017.90 1018.27 1018.61 1019.05 1019.10
1007.99 1007.72 1007.31 1006.98 1006.85 1006.85 1006.95 1007.13 1007.39 1007.72 1007.88 1008.20 1008.51 1008.77 1009.03 1009.26 1009.28 1009.36 1009.58 1009.88 1010.18 1010.48 1010.88 1011.33 1011.68 1012.21 1012.29 1012.53 1012.70 1012.92 1013.01 1013.15 1013.56 1014.41 1015.54 1016.51 1017.24 1017.50 1018.12 1018.33 1018.55 1018.92 1019.01
1007.95 1007.80 1007.50 1007.32 1007.20 1006.99 1007.00 1007.14 1007.34 1007.57 1007.81 1007.99 1008.22 1008.48 1008.64 1008.85 1008.97 1009.07 1009.25 1009.51 1009.82 1010.11 1010.33 1010.61 1010.76 1011.26 1011.58 1011.78 1012.12 1012.31 1012.46 1012.93 1013.50 1014.26 1015.29 1016.04 1016.87 1017.43 1017.71 1018.14 1018.52 1018.68 1018.90
1007.87 1007.68 1007.66 1007.65 1007.54 1007.51 1007.42 1007.49 1007.68 1007.88 1008.09 1008.10 1008.20 1008.27 1008.46 1008.60 1008.70 1008.80 1008.96 1009.17 1009.46 1009.77 1010.06 1010.36 1010.56 1010.78 1011.05 1011.12 1011.52 1011.91 1012.55 1012.95 1013.56 1014.34 1015.09 1015.93 1016.75 1017.31 1017.58 1017.94 1018.15 1018.32 1018.86
1007.86 1007.62 1007.69 1007.88 1008.11 1008.21 1008.15 1008.26 1008.49 1008.62 1008.69 1008.71 1008.76 1008.79 1008.64 1008.77 1009.02 1009.03 1009.04 1009.22 1009.52 1009.86 1010.25 1010.68 1011.07 1011.45 1011.67 1011.79 1011.99 1012.16 1012.54 1012.98 1013.78 1014.49 1015.04 1015.49 1015.94 1016.42 1016.85 1017.49 1017.93 1018.49 1019.05
1007.89 1007.88 1007.96 1008.20 1008.40 1008.75 1009.11 1009.19 1009.16 1009.09 1009.16 1009.24 1009.23 1009.30 1009.40 1009.43 1009.44 1009.36 1009.33 1009.48 1009.82 1010.19 1010.55 1011.20 1011.83 1011.90 1012.30 1012.15 1012.54 1012.83 1012.90 1013.35 1013.63 1014.14 1014.81 1015.04 1015.32 1015.82 1016.60 1017.27 1017.50 1018.14 1018.31
1007.82 1007.90 1008.22 1008.56 1008.63 1008.77 1009.21 1009.28 1009.42 1009.46 1009.50 1009.66 1009.72 1009.74 1009.78 1009.82 1009.61 1009.52 1009.61 1009.86 1010.37 1010.76 1011.00 1011.36 1011.82 1012.08 1012.32 1012.29 1012.68 1013.13 1013.52 1013.91 1014.21 1014.29 1014.52 1014.93 1014.89 1015.42 1015.92 1016.45 1016.96 1017.76 1018.08
1008.16 1007.95 1008.23 1008.81 1008.89 1008.89 1009.20 1009.39 1009.58 1009.72 1009.82 1009.96 1010.16 1010.31 1010.36 1010.36 1010.26 1010.07 1009.89 1010.22 1010.67 1011.22 1011.59 1011.73 1011.81 1012.16 1012.51 1012.63 1012.86 1013.36 1013.78 1014.47 1014.42 1014.46 1014.69 1014.63 1014.87 1015.26 1015.92 1016.61 1017.15 1017.50 1017.83
1008.86 1008.87 1008.81 1009.04 1009.26 1009.27 1009.32 1009.41 1009.64 1009.93 1010.15 1010.49 1010.75 1010.83 1010.87 1010.91 1010.67 1010.72 1010.74 1010.99 1011.17 1011.43 1011.90 1012.43 1012.47 1012.50 1012.77 1012.87 1013.22 1013.55 1014.02 1014.54 1014.65 1015.10 1015.00 1015.21 1015.27 1015.68 1016.26 1016.41 1017.08 1017.26 1017.53
1010.03 1009.73 1009.49 1009.21 1009.28 1009.37 1009.51 1009.73 1009.70 1009.99 1010.27 1010.62 1010.94 1011.17 1011.27 1011.34 1011.24 1011.23 1011.09 1011.35 1011.71 1012.27 1012.30 1012.52 1012.56 1012.74 1013.13 1013.19 1013.56 1013.86 1014.08 1014.67 1015.20 1015.12 1015.37 1015.76 1015.89 1016.42 1016.57 1016.85 1017.11 1017.28 1017.34
1010.63 1009.99 1009.65 1009.38 1009.32 1009.38 1009.52 1009.96 1010.12 1010.16 1010.32 1010.70 1011.18 1011.51 1011.65 1011.67 1011.67 1011.63 1011.42 1011.64 1011.80 1012.20 1012.77 1012.68 1012.61 1012.95 1013.25 1013.67 1013.85 1014.01 1014.42 1014.91 1015.50 1015.48 1015.74 1016.11 1016.29 1016.58 1016.87 1017.21 1017.38 1017.58 1017.67
1011.02 1010.38 1009.79 1009.54 1009.50 1009.51 1009.61 1009.90 1010.35 1010.46 1010.49 1010.80 1011.11 1011.58 1011.98 1012.02 1012.00 1012.07 1012.08 1012.05 1012.09 1012.45 1012.84 1013.15 1013.02 1013.22 1013.55 1013.77 1014.02 1014.39 1014.97 1015.32 1015.44 1015.65 1016.02 1016.29 1016.71 1017.04 1017.28 1017.73 1017.70 1017.63 1017.77
1011.11 1010.45 1010.04 1009.75 1009.77 1009.85 1009.83 1009.96 1010.20 1010.36 1010.41 1010.78 1011.18 1011.64 1012.01 1012.17 1012.31 1012.43 1012.42 1012.63 1012.69 1012.86 1013.13 1013.53 1013.60 1013.72 1014.17 1014.33 1014.50 1014.92 1015.32 1015.46 1015.62 1015.89 1016.28 1016.72 1017.02 1017.33 1017.42 1017.72 1017.69 1017.67 1017.73
1011.35 1010.70 1010.34 1010.20 1010.15 1010.32 1010.45 1010.49 1010.60 1010.62 1010.39 1010.69 1011.22 1011.75 1012.07 1012.27 1012.39 1012.55 1012.56 1012.88 1013.17 1013.58 1013.68 1013.92 1014.05 1014.26 1014.58 1014.87 1015.09 1015.31 1015.54 1015.66 1015.87 1016.14 1016.30 1016.76 1017.17 1017.33 1017.41 1017.54 1017.44 1017.34 1017.49
1011.53 1011.01 1010.71 1010.58 1010.58 1010.75 1011.02 1011.24 1011.31 1011.08 1011.03 1011.19 1011.56 1012.05 1012.29 1012.27 1012.38 1012.58 1012.72 1013.00 1013.38 1013.78 1014.03 1014.33 1014.58 1014.77 1015.04 1015.15 1015.28 1015.50 1015.81 1015.96 1016.09 1016.22 1016.49 1016.87 1017.10 1017.36 1017.50 1017.54 1017.48 1017.46 1017.50
1011.87 1011.46 1011.31 1011.20 1011.03 1011.16 1011.50 1011.78 1011.99 1012.24 1011.90 1012.01 1012.44 1012.63 1012.63 1012.56 1012.60 1012.80 1013.12 1013.42 1013.71 1013.93 1014.40 1014.88 1015.15 1015.45 1015.66 1015.91 1016.13 1016.20 1016.28 1016.43 1016.69 1016.78 1016.78 1016.90 1017.16 1017.46 1017.58 1017.52 1017.43 1017.40 1017.55
1012.83 1012.13 1012.05 1011.99 1011.76 1011.76 1012.08 1012.42 1012.27 1012.18 1012.73 1013.24 1013.59 1013.78 1013.73 1013.53 1013.55 1013.65 1013.78 1013.79 1014.10 1014.54 1015.18 1015.55 1015.69 1015.85 1015.92 1016.17 1016.47 1016.73 1016.92 1016.90 1016.81 1016.79 1016.89 1017.01 1017.28 1017.40 1017.44 1017.42 1017.46 1017.54 1017.67
1014.10 1013.48 1013.39 1013.14 1012.71 1013.02 1013.20 1013.53 1012.97 1013.11 1013.62 1014.29 1014.53 1014.61 1015.21 1015.13 1014.95 1015.02 1014.89 1014.83 1015.06 1015.77 1016.31 1016.72 1016.71 1016.73 1016.55 1016.67 1016.80 1017.11 1017.29 1017.38 1017.53 1017.38 1017.39 1017.44 1017.51 1017.56 1017.52 1017.57 1017.64 1017.79 1017.95
1015.39 1015.03 1014.77 1014.62 1014.29 1014.26 1014.45 1014.66 1014.68 1014.66 1014.88 1015.26 1016.07 1016.85 1016.77 1016.51 1016.69 1016.81 1016.82 1016.86 1017.05 1017.48 1017.74 1017.92 1018.00 1017.92 1017.77 1017.64 1017.67 1017.88 1017.78 1017.73 1017.62 1017.64 1017.66 1017.65 1017.69 1017.64 1017.64 1017.76 1017.87 1018.03 1018.14
1016.98 1016.49 1016.23 1016.18 1016.06 1016.22 1016.20 1016.27 1016.34 1016.41 1016.78 1017.53 1018.18 1018.33 1017.95 1018.15 1018.40 1018.40 1018.31 1018.27 1018.60 1018.66 1018.81 1018.95 1018.91 1018.78 1018.52 1018.34 1018.27 1018.18 1018.19 1018.18 1018.14 1018.16 1018.13 1018.03 1017.87 1017.88 1017.88 1017.83 1017.97 1018.10 1018.30
1018.67 1018.16 1017.98 1017.48 1017.69 1017.80 1017.86 1017.82 1018.02 1018.22 1018.54 1018.78 1019.07 1019.10 1018.69 1018.76 1018.90 1019.14 1019.19 1019.24 1019.36 1019.43 1019.43 1019.49 1019.41 1019.26 1019.13 1018.99 1018.93 1018.85 1018.72 1018.60 1018.54 1018.48 1018.37 1018.34 1018.32 1018.24 1018.14 1018.21 1018.22 1018.24 1018.30
1020.28 1019.83 1019.57 1019.30 1019.17 1019.06 1019.31 1019.39 1019.44 1019.49 1019.63 1019.61 1019.57 1019.50 1019.32 1019.30 1019.41 1019.34 1019.51 1019.66 1019.62 1019.55 1019.52 1019.51 1019.32 1019.28 1019.18 1019.16 1019.11 1019.19 1019.15 1019.03 1018.80 1018.77 1018.84 1018.78 1018.68 1018.50 1018.32 1018.23 1018.28 1018.23 1018.23
1021.43 1021.30 1020.98 1020.71 1020.34 1020.06 1020.28 1020.41 1020.24 1020.31 1020.26 1020.01 1019.86 1019.85 1019.84 1019.85 1019.82 1019.69 1019.80 1019.90 1019.89 1019.77 1019.49 1019.49 1019.40 1019.43 1019.31 1019.23 1019.11 1019.00 1018.94 1018.95 1018.81 1018.78 1018.89 1018.93 1018.82 1018.68 1018.55 1018.53 1018.42 1018.21 1018.09
1022.64 1022.28 1021.99 1021.84 1021.56 1021.24 1021.17 1021.16 1021.13 1020.97 1020.73 1020.60 1020.52 1020.43 1020.34 1020.22 1020.12 1020.00 1020.00 1019.99 1020.00 1019.87 1019.58 1019.50 1019.39 1019.33 1019.20 1019.10 1019.01 1018.87 1018.72 1018.60 1018.55 1018.49 1018.55 1018.61 1018.49 1018.42 1018.31 1018.05 1018.02 1018.08 1017.94
1023.77 1023.32 1022.85 1022.54 1022.37 1022.23 1022.09 1021.92 1021.83 1021.75 1021.61 1021.50 1021.33 1021.20 1021.09 1020.83 1020.54 1020.38 1020.30 1020.13 1020.07 1019.92 1019.77 1019.54 1019.37 1019.20 1019.08 1018.94 1018.60 1018.45 1018.38 1018.26 1018.12 1018.01 1018.18 1018.11 1017.95 1017.73 1017.50 1017.46 1017.62 1017.67 1017.60
Wind_Speed
10 11 10 10 12 12 12 13 14 13 13 13 13 13 13 13 13 13 13 13 13 13 12 12 13 12 9 9 8 8 9 9 11 3 2 2 4 5 5 7 5 7 8
10 10 10 11 11 11 12 12 11 13 12 12 10 10 12 14 15 15 14 13 14 14 14 12 12 9 12 11 9 11 10 10 8 13 3 3 3 5 4 6 4 5 7
9 10 9 9 10 11 11 10 8 9 9 8 8 11 12 13 14 13 14 14 14 14 12 12 12 12 11 8 9 9 8 7 5 3 3 2 1 2 2 2 3 4 4
6 8 7 7 8 8 8 10 10 6 7 6 8 9 10 11 11 11 12 11 11 10 11 12 10 11 11 10 9 9 5 5 4 3 2 3 2 2 2 2 2 1 3
6 5 6 6 5 6 5 4 4 3 4 4 4 5 6 7 5 8 7 8 9 9 6 5 5 4 5 6 4 5 5 3 2 3 3 2 2 2 3 3 3 3 2
8 6 4 2 4 4 3 2 2 1 2 2 3 4 4 1 7 7 5 5 5 5 5 3 3 3 5 7 8 6 3 4 3 2 2 3 4 3 3 4 3 3 3
8 6 4 3 2 2 3 3 3 2 2 1 2 1 3 3 5 4 3 2 2 1 3 4 4 4 4 5 8 8 9 10 5 5 4 3 3 5 5 4 4 2 2
9 6 4 4 4 3 3 3 2 0 0 0 1 1 3 2 3 6 6 5 6 5 6 5 6 5 3 5 6 5 5 4 3 3 4 2 3 5 5 4 5 4 3
9 7 5 5 4 4 4 4 2 1 2 2 2 3 2 1 2 4 6 6 6 6 4 4 5 5 6 6 6 6 6 4 5 7 6 6 6 9 7 5 4 5 2
7 5 2 3 2 4 4 4 2 2 3 3 4 4 4 4 4 2 4 2 4 5 5 4 5 5 7 6 5 5 6 3 5 4 5 8 8 7 9 3 4 5 2
8 6 3 2 2 4 3 1 3 4 5 5 5 4 5 3 5 6 5 3 3 3 3 3 2 9 9 10 8 4 4 6 7 5 5 4 5 4 3 3 3 1 2
7 4 2 1 2 2 5 2 3 5 6 5 4 4 3 3 6 8 9 8 7 4 3 3 4 12 12 11 6 12 12 7 3 4 4 4 4 3 3 2 2 1 1
8 4 1 1 2 2 4 5 4 3 4 4 4 4 3 2 4 10 10 10 10 5 3 5 9 14 13 12 14 12 6 3 3 3 4 4 3 3 2 1 1 1 1
9 3 1 1 3 3 2 2 3 3 4 3 3 4 3 2 2 3 4 4 8 6 8 6 11 12 11 8 6 7 4 4 4 4 3 3 2 1 0 1 2 1 1
8 2 1 2 3 4 4 3 3 3 3 4 3 3 3 3 2 5 5 4 4 6 6 4 4 4 5 4 4 4 3 2 3 3 2 2 2 2 2 2 2 2 2
7 2 1 1 2 4 6 8 15 14 16 15 11 6 2 7 10 11 12 13 12 8 4 4 4 3 3 3 3 3 2 2 2 1 1 2 3 2 2 2 1 1 1
4 1 1 2 2 5 5 5 7 10 21 18 13 13 13 6 12 13 13 12 9 6 4 3 3 3 3 3 2 2 0 2 2 2 2 3 3 3 3 3 3 2 2
6 8 4 4 4 4 4 4 4 5 6 5 14 17 17 17 16 8 12 10 5 5 3 3 3 3 3 3 2 1 1 1 1 0 1 1 1 2 1 1 1 1 1
9 7 5 5 6 6 5 4 6 7 7 7 6 10 14 12 14 16 16 6 5 5 5 5 5 5 4 4 4 3 2 2 2 2 1 0 1 1 2 2 1 2 0
10 15 12 8 7 8 7 7 7 8 8 9 8 8 7 8 7 7 7 6 6 5 5 4 4 4 4 3 3 3 3 2 2 2 2 2 1 1 2 2 2 3 2
7 9 12 9 9 8 7 8 8 8 8 7 5 6 12 5 5 5 5 5 5 4 4 4 4 4 3 3 3 3 3 3 2 1 2 2 1 1 2 2 3 2 2
8 8 8 8 7 8 8 7 7 6 5 4 3 4 10 4 4 4 4 4 3 3 2 3 3 3 3 3 4 4 4 3 2 2 2 1 1 2 2 2 3 2 3
8 8 7 7 6 7 6 5 4 4 3 3 3 3 4 4 4 4 4 3 3 3 3 3 3 3 3 3 2 3 4 3 2 2 2 2 2 2 3 4 3 3 3
8 8 7 6 6 6 5 5 5 6 5 5 4 5 5 5 5 5 4 4 4 4 4 4 3 5 5 4 3 3 2 2 2 2 3 2 3 3 3 4 3 3 3
7 7 7 6 6 6 6 6 6 6 5 5 5 5 5 5 5 4 4 4 4 4 5 4 4 5 7 7 7 7 6 8 4 4 2 4 6 6 6 3 3 3 4
7 7 6 6 6 6 6 6 6 6 6 5 5 5 5 5 5 5 5 5 5 5 7 6 6 8 8 8 8 9 9 10 8 9 6 7 7 7 6 7 7 6 6
Wind_Direction
265 254 242 237 240 241 240 238 242 237 231 223 219 219 218 218 220 215 215 219 221 220 219 221 227 229 232 233 230 229 232 228 248 229 145 158 174 181 193 214 214 207 217
280 266 245 240 232 236 240 241 240 241 237 232 219 216 219 220 221 216 213 209 214 213 218 219 227 227 228 227 224 226 229 229 238 252 137 165 185 206 186 195 201 221 220
290 276 263 246 235 234 235 237 234 241 242 222 228 216 217 228 228 222 215 215 216 218 217 218 225 225 226 227 228 232 224 227 217 186 173 115 127 127 143 157 176 195 219
290 281 273 271 262 253 249 248 247 240 245 231 229 227 228 229 228 228 222 221 224 224 222 224 219 218 224 223 223 225 203 188 166 151 133 126 131 136 116 144 177 159 190
280 275 277 270 287 291 298 294 313 318 302 289 251 232 232 234 231 225 227 219 221 225 213 208 210 210 236 224 188 203 180 162 130 149 121 114 134 152 176 166 182 151 192
264 256 257 274 297 278 283 304 308 307 333 355 315 312 271 21 20 344 280 210 216 207 198 172 91 67 76 66 59 62 121 154 116 121 108 164 171 164 138 160 137 133 227
255 249 225 251 259 315 302 326 321 310 13 2 22 72 90 69 35 33 53 136 148 121 108 123 98 70 49 85 83 83 81 83 125 153 157 165 149 161 137 157 156 143 156
250 236 203 227 226 195 237 223 209 224 150 43 45 78 120 83 90 88 79 88 82 77 92 114 136 132 138 128 117 103 91 88 95 93 107 150 121 152 146 161 150 124 104
256 234 190 218 220 195 209 212 168 166 84 76 57 47 67 50 85 120 113 116 113 100 95 95 130 133 139 131 123 119 96 57 62 86 94 96 126 140 134 120 137 152 141
309 323 280 233 218 216 205 162 121 107 95 85 59 41 39 35 49 67 106 94 110 116 93 73 82 103 121 111 106 125 119 116 108 79 61 60 71 106 104 88 151 167 114
317 303 289 227 201 216 117 97 130 122 108 89 81 53 48 37 54 67 86 98 109 97 108 100 69 116 106 109 108 90 106 118 110 101 98 91 90 94 84 75 60 74 138
303 288 279 224 149 129 134 99 113 126 117 108 111 93 58 40 68 65 80 91 101 103 102 105 115 116 106 107 97 101 111 109 104 102 106 96 93 84 76 80 101 99 69
296 282 268 81 89 117 140 136 129 129 131 136 127 121 106 52 80 79 81 85 91 91 101 103 116 111 103 97 95 94 87 98 109 102 92 76 54 55 56 101 108 133 232
295 289 342 108 108 78 83 100 138 150 135 128 127 128 124 95 89 87 76 67 67 78 90 85 93 93 87 85 78 73 69 66 69 79 83 94 94 54 359 249 249 221 241
298 311 36 54 91 82 57 58 81 42 80 117 91 111 144 147 125 119 118 106 89 94 99 90 84 82 84 80 81 74 76 68 87 95 100 121 156 180 203 191 223 209 226
296 304 39 70 93 101 101 92 77 84 85 89 91 100 88 124 132 119 111 113 112 100 80 91 89 88 91 95 99 105 97 80 67 72 147 203 226 217 223 231 216 242 278
318 21 34 53 91 116 116 114 106 69 67 68 78 72 62 107 123 111 110 110 106 103 98 94 97 94 88 61 40 26 52 74 42 241 225 228 240 245 247 250 262 276 294
0 24 27 37 51 63 80 94 104 89 73 54 43 44 48 53 52 130 126 111 89 73 80 103 120 129 117 124 143 162 204 203 207 304 271 27 272 256 261 251 264 281 296
19 22 21 43 56 57 56 50 69 75 70 54 36 26 14 15 47 42 41 40 54 59 28 41 22 22 31 24 33 13 19 2 6 357 318 259 322 316 299 307 312 304 316
31 33 37 36 44 48 46 51 54 62 63 58 42 28 360 19 24 27 34 35 38 37 29 21 20 15 15 16 12 358 340 330 337 339 335 347 327 303 290 285 259 273 264
28 35 39 43 41 41 49 50 49 53 54 57 47 6 42 46 30 27 24 34 31 24 18 5 354 351 358 2 348 346 343 331 336 324 308 300 310 302 285 263 274 257 223
17 30 31 43 40 39 39 44 45 56 62 65 46 21 38 51 46 28 25 28 22 13 6 346 329 336 344 344 343 332 323 316 316 316 302 310 298 276 251 245 255 246 231
18 25 29 38 42 43 42 40 43 42 36 41 31 24 26 32 22 19 6 354 349 342 337 328 321 314 320 319 309 299 292 292 317 2 329 305 285 260 253 250 240 222 216
17 18 23 24 29 39 34 27 30 28 19 17 15 10 6 0 353 350 345 339 334 329 330 322 307 294 297 294 287 280 257 255 270 269 252 264 273 279 246 252 253 238 238
11 13 17 14 14 18 14 14 10 7 6 3 356 351 346 342 337 337 335 333 327 319 318 313 302 295 296 291 282 278 274 284 270 256 242 230 243 246 250 250 249 249 235
3 5 9 8 9 7 4 360 357 353 351 346 342 337 333 329 329 327 328 327 323 324 317 307 298 295 297 294 289 281 272 269 257 239 226 231 240 239 235 236 229 237 234